[TLELIST] Archives

 

Current TLEs

October 4th 2007 PDT

HST 1 20580U 90037B 07275.97652013 +.00000408 +00000-0 +18828-4 0 09890 2 20580 028.4680 207.2210 0003997 162.6442 197.4283 15.00285264756164 ISS (ZARYA) 1 25544U 98067A 07277.18408853 .00009314 00000-0 64360-4 0 979 2 25544 051.6343 261.6200 0003035 062.6677 046.7831 15.75389133507978 CXO 1 25867U 99040B 07276.04166667 .00000219 00000-0 10000-3 0 1198 2 25867 062.4650 086.8707 6384838 282.4058 353.7753 00.37798337 2651 ____________________________________________________________________ These 2-Line ...Continue Reading

Current TLEs

October 3rd 2007 PDT

HST 1 20580U 90037B 07276.17608935 .00000429 00000-0 20446-4 0 9743 2 20580 028.4679 205.9174 0003994 163.1752 196.8970 15.00285504756199 ISS (ZARYA) 1 25544U 98067A 07276.49222639 .00009253 00000-0 64002-4 0 917 2 25544 051.6347 265.1816 0003049 062.1956 080.7911 15.75374847507865 CXO 1 25867U 99040B 07276.04166667 .00000219 00000-0 10000-3 0 1198 2 25867 062.4650 086.8707 6384838 282.4058 353.7753 00.37798337 2651 ____________________________________________________________________ These 2-Line ...Continue Reading

Current TLEs

October 2nd 2007 PDT

HST 1 20580U 90037B 07274.91215017 .00000378 00000-0 16436-4 0 9734 2 20580 028.4681 214.1618 0003985 152.9036 207.1763 15.00284536756008 ISS (ZARYA) 1 25544U 98067A 07275.28321002 .00008769 00000-0 60944-4 0 874 2 25544 051.6344 271.4043 0002944 058.8628 062.7891 15.75349654507679 CXO 1 25867U 99040B 07276.04166667 .00000219 00000-0 10000-3 0 1198 2 25867 062.4650 086.8707 6384838 282.4058 353.7753 00.37798337 2651 ____________________________________________________________________ These 2-Line ...Continue Reading

Current TLEs

October 1st 2007 PDT

HST 1 20580U 90037B 07273.31559404 .00000372 00000-0 16006-4 0 9724 2 20580 028.4681 224.5715 0003948 135.7436 224.3468 15.00283829755762 ISS (ZARYA) 1 25544U 98067A 07274.52574684 .00011468 00000-0 78412-4 0 831 2 25544 051.6344 275.3009 0002556 058.7136 084.3032 15.75343516507551 CXO 1 25867U 99040B 07273.41666667 .00000284 00000-0 10000-3 0 1182 2 25867 062.4477 086.9335 6383286 282.4721 356.3632 00.37801853 2641 ____________________________________________________________________ These 2-Line ...Continue Reading

Current TLEs

September 30th 2007 PDT

HST 1 20580U 90037B 07272.18469899 .00000342 00000-0 13642-4 0 9715 2 20580 028.4683 231.9465 0003884 126.2014 233.8932 15.00283202755591 ISS (ZARYA) 1 25544U 98067A 07273.51024711 .00012638 00000-0 86047-4 0 765 2 25544 051.6340 280.5259 0002512 058.2601 081.7847 15.75323511507396 CXO 1 25867U 99040B 07273.41666667 .00000284 00000-0 10000-3 0 1182 2 25867 062.4477 086.9335 6383286 282.4721 356.3632 00.37801853 2641 ____________________________________________________________________ These 2-Line ...Continue Reading

Current TLEs

September 29th 2007 PDT

HST 1 20580U 90037B 07272.18469899 .00000342 00000-0 13642-4 0 9715 2 20580 028.4683 231.9465 0003884 126.2014 233.8932 15.00283202755591 ISS (ZARYA) 1 25544U 98067A 07272.36640690 .00011579 00000-0 79308-4 0 694 2 25544 051.6346 286.4116 0002466 054.5116 074.3051 15.75290505507219 CXO 1 25867U 99040B 07270.79166667 .00000389 00000-0 10000-3 0 1170 2 25867 062.4246 087.0216 6382762 282.4858 359.0493 00.37808693 2637 ____________________________________________________________________ These 2-Line ...Continue Reading

Current TLEs

September 28th 2007 PDT

HST 1 20580U 90037B 07269.39072073 +.00000375 +00000-0 +16238-4 0 09741 2 20580 028.4683 250.1659 0003818 098.1454 261.9570 15.00282352755170 ISS (ZARYA) 1 25544U 98067A 07271.48197223 .00009643 00000-0 66847-4 0 643 2 25544 051.6341 290.9632 0002618 051.3387 098.4364 15.75261474507072 CXO 1 25867U 99040B 07270.79166667 .00000389 00000-0 10000-3 0 1170 2 25867 062.4246 087.0216 6382762 282.4858 359.0493 00.37808693 2637 ____________________________________________________________________ These 2-Line ...Continue Reading

Current TLEs

September 27th 2007 PDT

HST 1 20580U 90037B 07270.32204722 .00000367 00000-0 15629-4 0 9704 2 20580 028.4683 244.0934 0003829 107.6326 252.4682 15.00282674755316 ISS (ZARYA) 1 25544U 98067A 07270.33343816 .00007420 00000-0 52476-4 0 584 2 25544 051.6346 296.8737 0002707 044.2170 067.9306 15.75232959506890 CXO 1 25867U 99040B 07270.79166667 .00000389 00000-0 10000-3 0 1170 2 25867 062.4246 087.0216 6382762 282.4858 359.0493 00.37808693 2637 ____________________________________________________________________ These 2-Line ...Continue Reading

Current TLEs

September 26th 2007 PDT

HST 1 20580U 90037B 07269.19115081 .00000355 00000-0 14700-4 0 9690 2 20580 028.4683 251.4684 0003751 096.1087 263.9925 15.00282115755148 ISS (ZARYA) 1 25544U 98067A 07269.45027443 .00008806 00000-0 61519-4 0 510 2 25544 051.6344 301.4197 0002598 041.8155 098.6926 15.75220283506756 CXO 1 25867U 99040B 07268.12500000 .00000415 00000-0 10000-3 0 1166 2 25867 062.4015 087.1030 6378991 282.4763 356.1198 00.37808161 2629 ____________________________________________________________________ These 2-Line ...Continue Reading

Current TLEs

September 25th 2007 PDT

HST 1 20580U 90037B 07266.39716855 +.00000323 +00000-0 +12216-4 0 09724 2 20580 028.4689 269.6883 0003576 067.2034 292.8934 15.00280906754722 ISS (ZARYA) 1 25544U 98067A 07267.73081140 .00011119 00000-0 70702-4 0 394 2 25544 051.6354 310.2630 0010249 044.8299 057.9227 15.77017172506486 CXO 1 25867U 99040B 07268.12500000 .00000415 00000-0 10000-3 0 1166 2 25867 062.4015 087.1030 6378991 282.4763 356.1198 00.37808161 2629 ____________________________________________________________________ These 2-Line ...Continue Reading
  • This mailing list is a public mailing list - anyone may join or leave, at any time.
  • This mailing list is announce-only.

International Space Station (ISS) / Hubble Space Telescope (HST) / Chandra X-Ray Observatory Orbital Data via EMAIL

Privacy Policy:

Private list